252P/LINEAR (2021)

Japanese version
Home page
Updated on September 18, 2021

---------------------------------------------------------------------

* Profile

* Pictures

* Orbital Elements

Epoch 2021 July 5.0 TT = JDT 2459400.5
T 2021 July 10.93931 TT                                 MPCW
q   1.0005505            (2000.0)            P               Q
n   0.18502368     Peri.  343.30070     -0.99406335     -0.10325297
a   3.0501264      Node   190.94517     +0.10837848     -0.96749842
e   0.6719642      Incl.   10.40938     -0.00959992     -0.23083682
P   5.33
From 1382 observations 2011 June 9-2016 July 31, mean residual 0".8.
     Nongravitational parameters A1 = +0.73, A2 = -0.1285.

* Finding Charts

* Magnitudes Graph

        m1 = 10.0 + 5 log d + 30.0 log r(t - 15)

        * Gray curve is:  m1 = 18.0 + 5 log d + 10.0 log r

---------------------------------------------------------------------

The orbital elements are published on M.P.E.C. 2017-A77.
The charts are made with StellaNavigator Ver.10 (AstroArts).
The magnitudes graphs are made with Comet for Windows.

---------------------------------------------------------------------

Copyright(C) Seiichi Yoshida (comet@aerith.net). All rights reserved.